DW8300 Weather Reports


time (UTC)temp
F
wind
direction
speed
knots
gust
knots
rain 1hr
in
rain 24hr
in
rain mn
in
humidity
%
barometer
mb
20260506002049 74 222 0.0 7.0 0.00 0.00 0.00 35 1008.4
20260506001531 74 228 0.0 2.6 0.00 0.00 0.00 36 1008.4
20260506001012 74 79 0.0 2.6 0.00 0.00 0.00 35 1008.2
20260506000509 75 207 0.0 2.6 0.00 0.00 0.00 34 1008.3
20260505235957 75 218 0.0 0.9 0.00 0.00 0.00 35 1008.2
20260505234849 75 225 0.0 3.5 0.00 0.00 0.00 35 1008.2
20260505234345 76 216 0.0 3.5 0.00 0.00 0.00 34 1008.2
20260505233850 76 178 0.0 3.5 0.00 0.00 0.00 35 1008.1
20260505233332 76 196 0.0 0.9 0.00 0.00 0.00 35 1008.2
20260505232817 76 197 0.0 0.9 0.00 0.00 0.00 34 1008.1
20260505232322 76 244 0.0 1.7 0.00 0.00 0.00 35 1008.2
20260505231810 77 228 0.0 1.7 0.00 0.00 0.00 34 1008.2
20260505231304 77 211 0.0 0.0 0.00 0.00 0.00 34 1008.1
20260505230749 77 210 0.0 7.0 0.00 0.00 0.00 34 1008.0
20260505230236 77 151 0.0 4.3 0.00 0.00 0.00 33 1008.1
20260505225723 78 173 0.0 7.0 0.00 0.00 0.00 33 1008.0
20260505225229 78 221 0.0 7.0 0.00 0.00 0.00 32 1008.0
20260505224110 78 222 0.0 7.0 0.00 0.00 0.00 33 1008.1
20260505222329 78 142 0.0 6.1 0.00 0.00 0.00 34 1008.3
20260505221819 78 221 0.0 6.1 0.00 0.00 0.00 33 1008.2
20260505221323 78 217 0.0 5.2 0.00 0.00 0.00 33 1008.2
20260505220831 78 213 0.9 7.8 0.00 0.00 0.00 32 1008.2
20260505220313 78 228 0.0 7.8 0.00 0.00 0.00 33 1008.3
20260505215820 79 207 0.0 7.8 0.00 0.00 0.00 32 1008.2
20260505215330 79 181 0.0 7.8 0.00 0.00 0.00 34 1008.2
20260505214831 78 129 0.0 0.9 0.00 0.00 0.00 35 1008.2
20260505214323 78 236 0.0 1.7 0.00 0.00 0.00 34 1008.2
20260505213812 78 244 0.0 0.9 0.00 0.00 0.00 35 1008.2
20260505213315 78 217 0.0 7.8 0.00 0.00 0.00 35 1008.1
20260505212759 78 209 0.0 9.6 0.00 0.00 0.00 34 1008.1
20260505212308 79 158 0.9 9.6 0.00 0.00 0.00 35 1008.2
20260505211814 79 222 0.9 9.6 0.00 0.00 0.00 34 1008.1
20260505211321 79 234 0.9 9.6 0.00 0.00 0.00 35 1008.1
20260505210802 80 252 0.9 7.0 0.00 0.00 0.00 36 1008.0
20260505205643 80 201 0.9 11.3 0.00 0.00 0.00 35 1008.0
20260505205126 80 169 0.9 11.3 0.00 0.00 0.00 34 1007.9
20260505204624 80 208 0.9 11.3 0.00 0.00 0.00 36 1008.0
20260505204105 81 188 0.9 11.3 0.00 0.00 0.00 36 1008.0
20260505203558 81 248 0.0 8.7 0.00 0.00 0.00 36 1007.9
20260505203100 81 213 0.0 6.1 0.00 0.00 0.00 35 1007.8
20260505201930 81 196 0.9 7.8 0.00 0.00 0.00 35 1007.9
20260505201420 81 160 0.0 7.8 0.00 0.00 0.00 35 1008.0
20260505200913 80 236 0.0 7.8 0.00 0.00 0.00 37 1007.9
20260505200412 80 140 0.9 7.8 0.00 0.00 0.00 37 1007.9
20260505195909 80 212 0.0 7.8 0.00 0.00 0.00 37 1008.0
20260505195401 80 205 0.0 5.2 0.00 0.00 0.00 35 1008.1
20260505194854 80 194 0.0 5.2 0.00 0.00 0.00 37 1008.1
20260505194349 80 190 0.9 6.1 0.00 0.00 0.00 37 1008.1
20260505193848 81 202 0.0 6.1 0.00 0.00 0.00 37 1008.3
20260505193354 81 207 0.0 6.1 0.00 0.00 0.00 37 1008.2
20260505192846 80 143 0.9 6.1 0.00 0.00 0.00 36 1008.3
20260505192332 80 234 0.9 12.2 0.00 0.00 0.00 37 1008.4
20260505191831 81 218 0.0 12.2 0.00 0.00 0.00 38 1008.5
20260505191311 80 157 0.0 12.2 0.00 0.00 0.00 39 1008.5
20260505190123 80 122 0.0 6.1 0.00 0.00 0.00 37 1008.9
20260505185633 80 214 0.0 6.1 0.00 0.00 0.00 38 1008.9
20260505183858 80 227 0.0 7.0 0.00 0.00 0.00 38 1009.1
20260505183344 80 230 0.9 7.0 0.00 0.00 0.00 38 1009.1
20260505182846 80 232 0.0 4.3 0.00 0.00 0.00 38 1009.3
20260505181702 79 210 0.9 8.7 0.00 0.00 0.00 39 1009.4
20260505181202 79 178 0.9 8.7 0.00 0.00 0.00 38 1009.5
20260505180703 79 234 0.9 8.7 0.00 0.00 0.00 37 1009.5
20260505180206 79 146 0.0 7.0 0.00 0.00 0.00 40 1009.5
20260505175716 79 213 0.0 9.6 0.00 0.00 0.00 40 1009.6
20260505174614 79 243 0.0 9.6 0.00 0.00 0.00 39 1009.8
20260505174112 79 227 0.9 9.6 0.00 0.00 0.00 41 1009.8
20260505173618 79 163 0.9 7.0 0.00 0.00 0.00 38 1009.8
20260505173106 79 202 0.9 7.0 0.00 0.00 0.00 42 1009.8
20260505172609 79 232 0.0 6.1 0.00 0.00 0.00 39 1009.9
20260505172100 79 218 0.0 4.3 0.00 0.00 0.00 41 1009.9
20260505170928 78 207 0.0 0.0 0.00 0.00 0.00 42 1010.0
20260505170427 78 236 0.0 1.7 0.00 0.00 0.00 40 1010.0
20260505165922 78 219 0.0 2.6 0.00 0.00 0.00 39 1010.2
20260505165411 78 221 0.0 7.0 0.00 0.00 0.00 41 1010.3
20260505164913 78 249 0.9 7.8 0.00 0.00 0.00 38 1010.4
20260505163738 78 226 1.7 7.8 0.00 0.00 0.00 38 1010.6
20260505163229 78 244 0.9 12.2 0.00 0.00 0.00 41 1010.7
20260505162106 77 233 1.7 12.2 0.00 0.00 0.00 41 1010.8
20260505161605 77 221 1.7 12.2 0.00 0.00 0.00 43 1011.0
20260505161055 77 209 0.9 9.6 0.00 0.00 0.00 40 1010.9
20260505160602 77 237 0.9 9.6 0.00 0.00 0.00 42 1011.1
20260505153341 76 218 1.7 10.4 0.00 0.00 0.00 42 1011.2
20260505152847 76 238 1.7 10.4 0.00 0.00 0.00 41 1011.3
20260505152329 76 227 0.9 9.6 0.00 0.00 0.00 41 1011.3
20260505151831 76 219 2.6 9.6 0.00 0.00 0.00 45 1011.2
20260505151315 76 215 1.7 9.6 0.00 0.00 0.00 44 1011.2
20260505150823 75 245 0.0 7.0 0.00 0.00 0.00 46 1011.2
20260505150317 75 247 0.0 7.0 0.00 0.00 0.00 46 1011.2
20260505140454 69 232 0.0 0.9 0.00 0.00 0.00 60 1011.3
20260505124233 60 219 0.0 0.0 0.00 0.00 0.00 73 1012.0
20260505123728 59 219 0.0 0.0 0.00 0.00 0.00 75 1012.1
20260505123218 58 219 0.0 0.0 0.00 0.00 0.00 75 1012.2
20260505122722 58 218 0.0 0.0 0.00 0.00 0.00 75 1012.2
20260505121552 57 218 0.0 0.0 0.00 0.00 0.00 76 1012.1
20260505121050 57 219 0.0 0.0 0.00 0.00 0.00 75 1012.1
20260505120543 57 219 0.0 1.7 0.00 0.00 0.00 76 1012.1
20260505120052 56 221 0.0 1.7 0.00 0.00 0.00 77 1012.3
20260505115550 56 173 0.0 0.0 0.00 0.00 0.00 77 1012.2
20260505115030 56 141 0.0 0.0 0.00 0.00 0.00 78 1012.1
20260505114519 56 141 0.0 0.0 0.00 0.00 0.00 79 1012.1
20260505112702 55 142 0.0 0.0 0.00 0.00 0.00 80 1011.8
20260505112157 55 121 0.0 0.0 0.00 0.00 0.00 79 1011.7
20260505111707 55 121 0.0 0.0 0.00 0.00 0.00 79 1011.7
20260505101530 54 121 0.0 0.0 0.00 0.00 0.00 79 1011.0
20260505101024 54 121 0.0 0.0 0.00 0.00 0.00 79 1011.0
20260505100505 55 121 0.0 0.0 0.00 0.00 0.00 78 1010.9
20260505095958 55 121 0.0 0.0 0.00 0.00 0.00 78 1010.9
20260505095443 55 121 0.0 0.0 0.00 0.00 0.00 77 1011.0
20260505094334 55 121 0.0 0.0 0.00 0.00 0.00 77 1011.0
20260505093819 55 121 0.0 0.0 0.00 0.00 0.00 77 1010.9
20260505093302 55 121 0.0 0.0 0.00 0.00 0.00 77 1010.8
20260505092139 56 121 0.0 0.0 0.00 0.00 0.00 76 1010.9
20260505091621 56 121 0.0 0.0 0.00 0.00 0.00 76 1010.8
20260505091113 56 121 0.0 0.0 0.00 0.00 0.00 76 1010.9
20260505090604 56 121 0.0 0.0 0.00 0.00 0.00 77 1010.9
20260505090112 55 177 0.0 0.0 0.00 0.00 0.00 77 1010.8
20260505085617 55 177 0.0 0.0 0.00 0.00 0.00 77 1010.7
20260505085126 56 177 0.0 0.0 0.00 0.00 0.00 76 1010.8
20260505084015 56 187 0.0 0.0 0.00 0.00 0.00 76 1010.7
20260505083510 56 187 0.0 0.0 0.00 0.00 0.00 75 1010.6
20260505083009 56 187 0.0 0.0 0.00 0.00 0.00 75 1010.6
20260505082459 56 187 0.0 0.0 0.00 0.00 0.00 76 1010.5
20260505081955 56 187 0.0 0.0 0.00 0.00 0.00 76 1010.4
20260505081438 56 187 0.0 0.0 0.00 0.00 0.00 76 1010.4
20260505080934 56 187 0.0 0.0 0.00 0.00 0.00 76 1010.4
20260505080433 56 187 0.0 0.0 0.00 0.00 0.00 76 1010.5
20260505075917 56 187 0.0 0.0 0.00 0.00 0.00 76 1010.4
20260505075418 56 187 0.0 0.0 0.00 0.00 0.00 76 1010.5
20260505074920 56 187 0.0 0.0 0.00 0.00 0.00 76 1010.5
20260505074424 56 187 0.0 0.0 0.00 0.00 0.00 76 1010.4
20260505073917 56 187 0.0 0.0 0.00 0.00 0.00 76 1010.4
20260505072755 56 187 0.0 0.0 0.00 0.00 0.00 76 1010.4
20260505072256 56 187 0.0 0.0 0.00 0.00 0.00 76 1010.3
20260505071134 56 187 0.0 0.0 0.00 0.00 0.00 75 1010.2
20260505070626 56 187 0.0 0.0 0.00 0.00 0.00 74 1010.3
20260505064858 57 187 0.0 0.0 0.00 0.00 0.00 74 1010.3
20260505064405 57 187 0.0 0.0 0.00 0.00 0.00 74 1010.3
20260505063853 57 187 0.0 0.0 0.00 0.00 0.00 74 1010.3
20260505062729 57 187 0.0 0.0 0.00 0.00 0.00 73 1010.3
20260505062209 57 187 0.0 0.0 0.00 0.00 0.00 73 1010.5
20260505061038 57 187 0.0 0.0 0.00 0.00 0.00 73 1010.5
20260505060540 57 187 0.0 0.0 0.00 0.00 0.00 72 1010.5
20260505060046 57 187 0.0 0.0 0.00 0.00 0.00 72 1010.5
20260505055554 57 187 0.0 0.0 0.00 0.00 0.00 72 1010.4
20260505055047 58 187 0.0 0.0 0.00 0.00 0.00 72 1010.5
20260505054548 58 187 0.0 0.0 0.00 0.00 0.00 71 1010.4
20260505054048 58 187 0.0 0.0 0.00 0.00 0.00 71 1010.4
20260505052935 58 187 0.0 0.0 0.00 0.00 0.00 70 1010.4
20260505052433 59 187 0.0 0.0 0.00 0.00 0.00 69 1010.4
20260505051927 59 187 0.0 0.0 0.00 0.00 0.00 69 1010.4
20260505051425 59 188 0.0 0.0 0.00 0.00 0.00 68 1010.5
20260505050929 59 187 0.0 0.0 0.00 0.00 0.00 68 1010.5
20260505041704 61 193 0.0 0.0 0.00 0.00 0.00 65 1010.6
20260505041211 61 193 0.0 0.0 0.00 0.00 0.00 65 1010.6
20260505040651 61 193 0.0 0.0 0.00 0.00 0.00 65 1010.6
20260505035525 61 194 0.0 0.0 0.00 0.00 0.00 64 1010.4
20260505035009 61 194 0.0 0.0 0.00 0.00 0.00 64 1010.5
20260505034506 61 194 0.0 0.0 0.00 0.00 0.00 63 1010.4
20260505033354 62 194 0.0 0.0 0.00 0.00 0.00 62 1010.3
20260505032240 62 194 0.0 0.0 0.00 0.00 0.00 61 1010.3
20260505031733 62 193 0.0 0.0 0.00 0.00 0.00 61 1010.4
20260505030600 62 194 0.0 0.0 0.00 0.00 0.00 61 1010.5
20260505030041 63 194 0.0 0.0 0.00 0.00 0.00 61 1010.5
20260505025550 63 194 0.0 0.0 0.00 0.00 0.00 60 1010.4
20260505025045 63 194 0.0 0.0 0.00 0.00 0.00 60 1010.5
20260505023921 64 231 0.0 0.0 0.00 0.00 0.00 58 1010.6
20260505023426 64 231 0.0 0.0 0.00 0.00 0.00 58 1010.5
20260505022314 64 231 0.0 0.0 0.00 0.00 0.00 57 1010.4
20260505021804 64 231 0.0 0.0 0.00 0.00 0.00 57 1010.4
20260505021259 65 231 0.0 0.0 0.00 0.00 0.00 56 1010.4
20260505020135 65 231 0.0 0.0 0.00 0.00 0.00 55 1010.4
20260505015627 66 231 0.0 0.9 0.00 0.00 0.00 54 1010.4
20260505014511 66 232 0.0 0.0 0.00 0.00 0.00 53 1010.2
20260505014015 67 233 0.0 0.0 0.00 0.00 0.00 53 1010.2
20260505012844 67 232 0.0 0.0 0.00 0.00 0.00 52 1010.0
20260505012325 67 231 0.0 0.0 0.00 0.00 0.00 51 1010.0
20260505011825 67 229 0.0 0.9 0.00 0.00 0.00 51 1009.9
20260505011316 68 210 0.0 0.0 0.00 0.00 0.00 50 1010.0
20260505010805 68 158 0.0 0.0 0.00 0.00 0.00 50 1009.9
20260505010247 68 157 0.0 0.0 0.00 0.00 0.00 49 1009.7
20260505005750 68 144 0.0 0.0 0.00 0.00 0.00 49 1009.6
20260505005254 68 209 0.0 0.9 0.00 0.00 0.00 49 1009.6
20260505003502 68 221 0.0 0.0 0.00 0.00 0.00 47 1009.4
20260505003009 69 240 0.0 0.0 0.00 0.00 0.00 47 1009.5